Faro, Portugal

10:42 AM WET on December 13, 2019 (GMT +0000)
Faro

Weather History for LPFR - November, 2019

Change the Weather History Date:

Tuesday, November 19, 2019

  Actual Average Record
Temperature  
Mean Temperature 52 °F -  
Max Temperature 60 °F 62 °F 71 °F (2007)
Min Temperature 45 °F 48 °F 39 °F (1996)
Degree Days  
Heating Degree Days 12    
Growing Degree Days 2 (Base 50)    
Moisture  
Dew Point 44 °F    
Average Humidity 69    
Maximum Humidity 87    
Minimum Humidity 43    
Precipitation  
Precipitation 0.00 in 0.12 in - ()
Sea Level Pressure  
Sea Level Pressure 30.05 in    
Wind  
Wind Speed 4 mph ()    
Max Wind Speed 7 mph    
Max Gust Speed -    
Visibility 7.4 miles    
Events      
Averages and records for this station are not official NWS values.
T = Trace of Precipitation, MM = Missing Value Source: Averaged Metar Reports

Daily Weather History Graph

Daily Weather History Graph

Search for Another Location

Airport or City:

Astronomy

Nov. 19, 2019 Rise Set
Actual Time 7:14 AM WET 5:19 PM WET
Civil Twilight 6:46 AM WET 5:47 PM WET
Nautical Twilight 6:14 AM WET 6:19 PM WET
Astronomical Twilight 5:43 AM WET 6:50 PM WET
Moon 11:58 PM WET (11/19) 1:16 PM WET (11/19)
Length of Visible Light 11h 01m
Length of Day
10h 05m
Waning Gibbous, 54% of the Moon is Illuminated
Nov 19
Waning Gibbous
Nov 19
Last Quarter
Nov 26
New
Dec 4
First Quarter
Dec 12
Full

Hourly Weather History & Observations

Time (WET) Temp. Windchill Dew Point Humidity Pressure Visibility Wind Dir Wind Speed Gust Speed Precip Events Conditions
12:00 AM 50 °F - 42 °F 65% 30.13 in 9 mi NNW 6.7 mph - -   Clear
12:00 AM 48.2 °F - 42.8 °F 82% 30.09 in - NW 5.8 mph - N/A   Clear
12:30 AM 48.2 °F - 41.0 °F 76% 30.09 in - NNW 5.8 mph - N/A   Clear
1:00 AM 51 °F - 41 °F 60% 30.10 in - North 6.7 mph - -  
1:00 AM 51.8 °F - 41.0 °F 67% 30.06 in - North 5.8 mph - N/A   Clear
1:30 AM 48.2 °F - 41.0 °F 76% 30.06 in - North 4.6 mph - N/A   Clear
2:00 AM 46 °F - 42 °F 83% 30.10 in - WSW 2.2 mph - -  
2:00 AM 46.4 °F 45.2 °F 42.8 °F 87% 30.06 in - SW 3.5 mph - N/A   Clear
2:30 AM 46.4 °F 45.2 °F 42.8 °F 87% 30.06 in - SW 3.5 mph - N/A   Clear
3:00 AM 49 °F - 42 °F 67% 30.10 in 9 mi Calm Calm - -   Clear
3:00 AM 48.2 °F - 42.8 °F 82% 30.06 in - West 3.5 mph - N/A   Clear
3:30 AM 46.4 °F 45.2 °F 41.0 °F 81% 30.06 in - West 3.5 mph - N/A   Clear
4:00 AM 48.2 °F - 42.8 °F 82% 30.06 in - Calm Calm - N/A   Clear
4:30 AM 46.4 °F - 41.0 °F 81% 30.06 in - Calm Calm - N/A   Clear
5:00 AM 48 °F - 43 °F 77% 30.09 in - Calm Calm - -  
5:00 AM 46.4 °F - 42.8 °F 87% 30.06 in - North 1.2 mph - N/A   Clear
5:30 AM 46.4 °F 44.3 °F 41.0 °F 81% 30.06 in - NNE 4.6 mph - N/A   Clear
6:00 AM 48 °F - 41 °F 70% 30.10 in - Calm Calm - -  
6:00 AM 46.4 °F 43.5 °F 42.8 °F 87% 30.06 in - NNE 5.8 mph - N/A   Clear
6:30 AM 48.2 °F - 42.8 °F 82% 30.06 in - NNE 5.8 mph - N/A   Clear
7:00 AM 48 °F - 41 °F 70% 30.11 in - NNE 2.2 mph - -  
7:00 AM 46.4 °F 43.5 °F 41.0 °F 81% 30.06 in - NNE 5.8 mph - N/A   Clear
8:00 AM 49 °F - 42 °F 67% 30.12 in - NE 2.2 mph - -  
8:00 AM 48.2 °F - 41.0 °F 76% 30.09 in - NNE 5.8 mph - N/A   Clear
8:30 AM 50.0 °F - 42.8 °F 76% 30.09 in - North 3.5 mph - N/A   Clear
9:00 AM 54 °F - 44 °F 59% 30.12 in 12 mi ENE 2.2 mph - -   Scattered Clouds
9:00 AM 53.6 °F - 42.8 °F 67% 30.09 in - NE 3.5 mph - N/A   Clear
9:30 AM 55.4 °F - 46.4 °F 72% 30.09 in - Variable 2.3 mph - N/A   Clear
10:00 AM 59.0 °F - 48.2 °F 67% 30.09 in - Variable 2.3 mph - N/A   Clear
10:30 AM 59.0 °F - 50.0 °F 72% 30.09 in - ESE 4.6 mph - N/A   Clear
11:00 AM 60 °F - 50 °F 60% 30.12 in - ESE 4.5 mph - -  
11:00 AM 59.0 °F - 50.0 °F 72% 30.09 in 6.2 mi ESE 5.8 mph - N/A   Partly Cloudy
11:30 AM 60.8 °F - 42.8 °F 52% 30.06 in 6.2 mi SE 4.6 mph - N/A   Partly Cloudy
12:00 PM 59 °F - 43 °F 43% 30.09 in 12 mi SSW 3.5 mph - -   Scattered Clouds
12:00 PM 60.8 °F - 41.0 °F 48% 30.06 in 6.2 mi South 5.8 mph - N/A   Partly Cloudy
12:30 PM 59.0 °F - 44.6 °F 59% 30.06 in 6.2 mi South 5.8 mph - N/A   Partly Cloudy
1:00 PM 59 °F - 47 °F 55% 30.07 in - SSW 6.7 mph - -  
1:00 PM 59.0 °F - 46.4 °F 63% 30.04 in 6.2 mi South 5.8 mph - N/A   Partly Cloudy
1:30 PM 59.0 °F - 48.2 °F 67% 30.04 in 6.2 mi SSW 6.9 mph - N/A   Partly Cloudy
2:00 PM 59.0 °F - 48.2 °F 67% 30.04 in 6.2 mi SSE 6.9 mph - N/A   Partly Cloudy
2:30 PM 59.0 °F - 48.2 °F 67% 30.01 in 6.2 mi South 6.9 mph - N/A   Partly Cloudy
3:00 PM 58 °F - 45 °F 53% 30.04 in 12 mi SW 6.7 mph - -   Scattered Clouds
3:00 PM 59.0 °F - 46.4 °F 63% 30.01 in 6.2 mi SSW 6.9 mph - N/A   Partly Cloudy
4:00 PM 57 °F - 45 °F 55% 30.03 in - SW 4.5 mph - -  
4:00 PM 57.2 °F - 46.4 °F 67% 30.01 in 6.2 mi SW 5.8 mph - N/A   Partly Cloudy
5:00 PM 57 °F - 44 °F 51% 30.03 in - SW 2.2 mph - -  
5:00 PM 57.2 °F - 42.8 °F 59% 30.01 in 6.2 mi WSW 3.5 mph - N/A   Scattered Clouds
5:30 PM 57.2 °F - 42.8 °F 59% 30.01 in 6.2 mi Variable 1.2 mph - N/A   Scattered Clouds
6:00 PM 57 °F - 47 °F 60% 30.03 in 12 mi WNW 4.5 mph - -   Scattered Clouds
6:00 PM 57.2 °F - 46.4 °F 67% 30.01 in 6.2 mi WSW 3.5 mph - N/A   Partly Cloudy
6:30 PM 57.2 °F - 46.4 °F 67% 30.01 in 6.2 mi West 3.5 mph - N/A   Partly Cloudy
7:00 PM 57 °F - 46 °F 58% 30.03 in - NNE 2.2 mph - -  
7:30 PM 57.2 °F - 46.4 °F 67% 30.01 in 6.2 mi NE 2.3 mph - N/A   Partly Cloudy
8:00 PM 55.4 °F - 46.4 °F 72% 29.98 in 6.2 mi Variable 1.2 mph - N/A   Partly Cloudy
8:30 PM 53.6 °F - 46.4 °F 77% 29.98 in 6.2 mi South 2.3 mph - N/A   Partly Cloudy
9:00 PM 55 °F - 47 °F 66% 30.01 in 11 mi Calm Calm - -   Mostly Cloudy
9:00 PM 55.4 °F - 48.2 °F 77% 29.98 in 6.2 mi Calm Calm - N/A   Partly Cloudy
9:30 PM 55.4 °F - 46.4 °F 72% 29.98 in 6.2 mi NE 3.5 mph - N/A   Partly Cloudy
10:00 PM 56 °F - 46 °F 61% 30.01 in - NNE 2.2 mph - -  
10:30 PM 53.6 °F - 46.4 °F 77% 29.98 in 6.2 mi NNE 5.8 mph - N/A   Partly Cloudy
11:00 PM 53.6 °F - 42.8 °F 67% 29.98 in 6.2 mi NNE 5.8 mph - N/A   Partly Cloudy
11:30 PM 51.8 °F - 42.8 °F 71% 29.98 in 6.2 mi NE 6.9 mph - N/A   Partly Cloudy